"Pseudo-MPEC" for P10NLQX

Created 2019 Jun 20 19:07:14 UT using Find_Orb

Click here for an explanation of pseudo-MPECs

 
 Astrometry: 
     P10NLQX  C2019 05 091u\mFjnJ?3VPY'!JP]#L]#WG9#P]na2P/2@#\_@IJ)w-Mc0S@GWwF51
     P10NLQX  C2019 05 09IJ!yboAstrometry:NyIaredacted;?'CX!mtKPclickLQ]yon-5F51
     P10NLQX  C2019 05 09ofhgq*62Y55@.cg=0;C`ANxAwhereF(f;FS4ht+s1=RforSLcIiPF51
     P10NLQX KC2019 05 11AEd:gl8bjexplanation8jVTj/hX*MQok]Ix/2!SBS,G)S:ECRiSH21
     P10NLQX KC2019 05 11`Yc(7GVip!?yj,CHwPd]wG67FYD53*nPg,QCO!D/@wyQBONrm2poH21

Station data:
(F51) Pan-STARRS 1, Haleakala  (N20.707235 W156.255910)  US/Hawaii.
   Observers N. Primak, A. Schultz, S. Watters, J. Thiel, T. Goggia. Measurer
   PS1 Science Consortium. 1.8-m Ritchey-Chrétien + CCD.
(H21) Astronomical Research Observatory, Westfield  (N39.483057 W87.968270)
   US/Illinois. 0.76-m f/3.0 astrograph + CCD.

Orbital elements:  P10NLQX
   Perihelion 2019 Mar 4.021825 +/- 90.7 TT =  0:31:25 (JD 2458546.521825)
Epoch 2019 May 11.0 TT = JDT 2458614.5   Earth MOID: 0.1200   Ma: 0.0654
M  48.82191318 +/- 52               (J2000 ecliptic)          AutoNEOCP
n   0.71819981 +/- 0.219            Peri.  339.61929 +/- 90
a   1.23492103 +/- 0.251            Node   194.10049 +/- 39
e   0.0975601 +/- 0.128             Incl.    7.74144 +/- 7
P   1.37/501.24d           H 24.2   G  0.15   U 11.7  SR
q 1.11444193 +/- 0.224    Q 1.35540013 +/- 0.721
From 5 observations 2019 May 9-11 (40.7 hr); mean residual 0".32
Residuals in arcseconds: 
190509 F51  .37+  .39+    190509 F51  .39-  .67-    190511 H21  .14-  .13-    
190509 F51  .01+  .28+    190511 H21  .15+  .14+    

Ephemerides (geocentric):
Date (UTC) HH   RA              Dec         delta   r     elong  mag " sig PA
---- -- -- --  -------------   -----------  ------ ------ -----  --- ---- ---
2019 06 20 19  16 01 16.725   +14 00 24.49  .27532 1.2216 133.3 23.4  49d 176
2019 06 20 20  16 01 16.905   +13 59 48.79  .27545 1.2217 133.3 23.4  49d 176
2019 06 20 21  16 01 17.091   +13 59 13.04  .27559 1.2218 133.3 23.4  49d 176
2019 06 20 22  16 01 17.281   +13 58 37.23  .27573 1.2218 133.3 23.4  49d 176
2019 06 20 23  16 01 17.475   +13 58 01.37  .27587 1.2219 133.3 23.4  49d 176
2019 06 21 00  16 01 17.673   +13 57 25.45  .27601 1.2219 133.2 23.4  49d 176
2019 06 21 01  16 01 17.877   +13 56 49.48  .27615 1.2220 133.2 23.4  49d 176
2019 06 21 02  16 01 18.084   +13 56 13.46  .27629 1.2221 133.2 23.4  49d 176
2019 06 21 03  16 01 18.296   +13 55 37.37  .27643 1.2221 133.2 23.4  49d 176
2019 06 21 04  16 01 18.513   +13 55 01.24  .27656 1.2222 133.2 23.4  49d 176
2019 06 21 05  16 01 18.733   +13 54 25.05  .27670 1.2223 133.2 23.4  49d 176
2019 06 21 06  16 01 18.959   +13 53 48.81  .27684 1.2223 133.1 23.4  49d 176
2019 06 21 07  16 01 19.189   +13 53 12.51  .27698 1.2224 133.1 23.4  49d 176
2019 06 21 08  16 01 19.423   +13 52 36.16  .27712 1.2224 133.1 23.4  49d 176
2019 06 21 09  16 01 19.661   +13 51 59.75  .27726 1.2225 133.1 23.4  49d 176
2019 06 21 10  16 01 19.904   +13 51 23.29  .27740 1.2226 133.1 23.4  49d 176
2019 06 21 11  16 01 20.152   +13 50 46.78  .27754 1.2226 133.1 23.4  49d 176
2019 06 21 12  16 01 20.404   +13 50 10.21  .27768 1.2227 133.0 23.4  49d 176
2019 06 21 13  16 01 20.660   +13 49 33.59  .27782 1.2228 133.0 23.4  49d 176
2019 06 21 14  16 01 20.921   +13 48 56.92  .27796 1.2228 133.0 23.4  49d 176
2019 06 21 15  16 01 21.186   +13 48 20.19  .27810 1.2229 133.0 23.4  49d 176
2019 06 21 16  16 01 21.456   +13 47 43.41  .27824 1.2230 133.0 23.4  49d 176
2019 06 21 17  16 01 21.730   +13 47 06.58  .27838 1.2230 133.0 23.4  49d 176
2019 06 21 18  16 01 22.008   +13 46 29.69  .27852 1.2231 132.9 23.4  49d 176
2019 06 21 19  16 01 22.291   +13 45 52.75  .27866 1.2231 132.9 23.4  49d 176
2019 06 21 20  16 01 22.579   +13 45 15.76  .27880 1.2232 132.9 23.4  49d 176
2019 06 21 21  16 01 22.871   +13 44 38.71  .27894 1.2233 132.9 23.4  49d 176
2019 06 21 22  16 01 23.167   +13 44 01.62  .27908 1.2233 132.9 23.4  49d 176
2019 06 21 23  16 01 23.468   +13 43 24.47  .27922 1.2234 132.8 23.4  49d 176
2019 06 22 00  16 01 23.773   +13 42 47.27  .27936 1.2235 132.8 23.4  49d 176
2019 06 22 01  16 01 24.082   +13 42 10.01  .27950 1.2235 132.8 23.4  49d 176
2019 06 22 02  16 01 24.396   +13 41 32.71  .27964 1.2236 132.8 23.4  49d 176
2019 06 22 03  16 01 24.715   +13 40 55.35  .27978 1.2237 132.8 23.4  49d 176
2019 06 22 04  16 01 25.037   +13 40 17.94  .27992 1.2237 132.8 23.4  49d 176
2019 06 22 05  16 01 25.365   +13 39 40.48  .28006 1.2238 132.7 23.4  49d 176
2019 06 22 06  16 01 25.696   +13 39 02.97  .28020 1.2238 132.7 23.4  49d 176
2019 06 22 07  16 01 26.033   +13 38 25.40  .28034 1.2239 132.7 23.4  49d 176
2019 06 22 08  16 01 26.373   +13 37 47.78  .28049 1.2240 132.7 23.4  49d 176
2019 06 22 09  16 01 26.718   +13 37 10.12  .28063 1.2240 132.7 23.4  49d 176
2019 06 22 10  16 01 27.068   +13 36 32.40  .28077 1.2241 132.7 23.4  49d 176
2019 06 22 11  16 01 27.421   +13 35 54.63  .28091 1.2242 132.6 23.4  49d 176
2019 06 22 12  16 01 27.780   +13 35 16.81  .28105 1.2242 132.6 23.4  49d 176
2019 06 22 13  16 01 28.142   +13 34 38.94  .28119 1.2243 132.6 23.4  49d 176
2019 06 22 14  16 01 28.509   +13 34 01.01  .28133 1.2243 132.6 23.4  49d 176
2019 06 22 15  16 01 28.881   +13 33 23.04  .28148 1.2244 132.6 23.4  49d 176
2019 06 22 16  16 01 29.257   +13 32 45.02  .28162 1.2245 132.6 23.4  49d 176
2019 06 22 17  16 01 29.637   +13 32 06.94  .28176 1.2245 132.5 23.4  49d 176
2019 06 22 18  16 01 30.022   +13 31 28.82  .28190 1.2246 132.5 23.5  49d 176